Year,Month,Day,Hour,Minute,Value (Times are PST for temperature in C)
2008,08,05,00,00,19.20
2008,08,05,00,01,19.20
2008,08,05,00,02,19.20
2008,08,05,00,03,19.20
2008,08,05,00,04,19.20
2008,08,05,00,05,19.20
2008,08,05,00,06,19.20
2008,08,05,00,07,19.10
2008,08,05,00,08,19.10
2008,08,05,00,09,19.00
2008,08,05,00,10,19.00
2008,08,05,00,11,18.90
2008,08,05,00,12,18.90
2008,08,05,00,13,18.80
2008,08,05,00,14,18.80
2008,08,05,00,15,18.70
2008,08,05,00,16,18.70
2008,08,05,00,17,18.70
2008,08,05,00,18,18.70
2008,08,05,00,19,18.60
2008,08,05,00,20,18.60
2008,08,05,00,21,18.60
2008,08,05,00,22,18.60
2008,08,05,00,23,18.50
2008,08,05,00,24,18.50
2008,08,05,00,25,18.40
2008,08,05,00,26,18.40
2008,08,05,00,27,18.40
2008,08,05,00,28,18.40
2008,08,05,00,29,18.40
2008,08,05,00,30,18.30
2008,08,05,00,31,18.30
2008,08,05,00,32,18.20
2008,08,05,00,33,18.20
2008,08,05,00,34,18.20
2008,08,05,00,35,18.10
2008,08,05,00,36,18.10
2008,08,05,00,37,18.10
2008,08,05,00,38,18.10
2008,08,05,00,39,18.00
2008,08,05,00,40,18.00
2008,08,05,00,41,17.90
2008,08,05,00,42,17.90
2008,08,05,00,43,17.80
2008,08,05,00,44,17.80
2008,08,05,00,45,17.70
2008,08,05,00,46,17.60
2008,08,05,00,47,17.50
2008,08,05,00,48,17.40
2008,08,05,00,49,17.30
2008,08,05,00,50,17.20
2008,08,05,00,51,17.20
2008,08,05,00,52,17.10
2008,08,05,00,53,17.00
2008,08,05,00,54,16.90
2008,08,05,00,55,16.70
2008,08,05,00,56,16.50
2008,08,05,00,57,16.40
2008,08,05,00,58,16.30
2008,08,05,00,59,16.20
2008,08,05,01,00,15.90
2008,08,05,01,01,15.70
2008,08,05,01,02,15.40
2008,08,05,01,03,15.20
2008,08,05,01,04,15.00
2008,08,05,01,05,15.00
2008,08,05,01,06,15.00
2008,08,05,01,07,14.80
2008,08,05,01,08,14.70
2008,08,05,01,09,14.60
2008,08,05,01,10,14.50
2008,08,05,01,11,14.40
2008,08,05,01,12,14.30
2008,08,05,01,13,14.20
2008,08,05,01,14,14.20
2008,08,05,01,15,14.20
2008,08,05,01,16,14.20
2008,08,05,01,17,14.10
2008,08,05,01,18,14.10
2008,08,05,01,19,14.00
2008,08,05,01,20,14.00
2008,08,05,01,21,13.90
2008,08,05,01,22,13.90
2008,08,05,01,23,13.90
2008,08,05,01,24,13.80
2008,08,05,01,25,13.80
2008,08,05,01,26,13.70
2008,08,05,01,27,13.70
2008,08,05,01,28,13.70
2008,08,05,01,29,13.70
2008,08,05,01,30,13.60
2008,08,05,01,31,13.50
2008,08,05,01,32,13.40
2008,08,05,01,33,13.40
2008,08,05,01,34,13.40
2008,08,05,01,35,13.30
2008,08,05,01,36,13.30
2008,08,05,01,37,13.20
2008,08,05,01,38,13.20
2008,08,05,01,39,13.10
2008,08,05,01,40,13.10
2008,08,05,01,41,13.10
2008,08,05,01,42,13.10
2008,08,05,01,43,13.10
2008,08,05,01,44,13.10
2008,08,05,01,45,13.00
2008,08,05,01,46,13.00
2008,08,05,01,47,12.90
2008,08,05,01,48,12.90
2008,08,05,01,49,12.80
2008,08,05,01,50,12.90
2008,08,05,01,51,12.90
2008,08,05,01,52,12.90
2008,08,05,01,53,12.90
2008,08,05,01,54,12.80
2008,08,05,01,55,12.80
2008,08,05,01,56,12.80
2008,08,05,01,57,12.80
2008,08,05,01,58,12.80
2008,08,05,01,59,12.80
2008,08,05,02,00,12.70
2008,08,05,02,01,12.70
2008,08,05,02,02,12.70
2008,08,05,02,03,12.70
2008,08,05,02,04,12.70
2008,08,05,02,05,12.60
2008,08,05,02,06,12.50
2008,08,05,02,07,12.50
2008,08,05,02,08,12.40
2008,08,05,02,09,12.30
2008,08,05,02,10,12.30
2008,08,05,02,11,12.40
2008,08,05,02,12,12.40
2008,08,05,02,13,12.50
2008,08,05,02,14,12.70
2008,08,05,02,15,12.70
2008,08,05,02,16,12.70
2008,08,05,02,17,12.60
2008,08,05,02,18,12.50
2008,08,05,02,19,12.40
2008,08,05,02,20,12.40
2008,08,05,02,21,12.50
2008,08,05,02,22,12.50
2008,08,05,02,23,12.40
2008,08,05,02,24,12.40
2008,08,05,02,25,12.40
2008,08,05,02,26,12.40
2008,08,05,02,27,12.40
2008,08,05,02,28,12.40
2008,08,05,02,29,12.40
2008,08,05,02,30,12.30
2008,08,05,02,31,12.30
2008,08,05,02,32,12.20
2008,08,05,02,33,12.20
2008,08,05,02,34,12.20
2008,08,05,02,35,12.10
2008,08,05,02,36,12.20
2008,08,05,02,37,12.20
2008,08,05,02,38,12.20
2008,08,05,02,39,12.30
2008,08,05,02,40,12.40
2008,08,05,02,41,12.60
2008,08,05,02,42,12.70
2008,08,05,02,43,12.80
2008,08,05,02,44,12.90
2008,08,05,02,45,12.90
2008,08,05,02,46,13.00
2008,08,05,02,47,13.00
2008,08,05,02,48,12.90
2008,08,05,02,49,12.90
2008,08,05,02,50,12.80
2008,08,05,02,51,12.80
2008,08,05,02,52,12.80
2008,08,05,02,53,12.80
2008,08,05,02,54,12.70
2008,08,05,02,55,12.70
2008,08,05,02,56,12.60
2008,08,05,02,57,12.40
2008,08,05,02,58,12.30
2008,08,05,02,59,12.40
2008,08,05,03,00,12.40
2008,08,05,03,01,12.30
2008,08,05,03,02,12.30
2008,08,05,03,03,12.30
2008,08,05,03,04,12.20
2008,08,05,03,05,12.20
2008,08,05,03,06,12.20
2008,08,05,03,07,12.30
2008,08,05,03,08,12.30
2008,08,05,03,09,12.30
2008,08,05,03,10,12.40
2008,08,05,03,11,12.40
2008,08,05,03,12,12.50
2008,08,05,03,13,12.60
2008,08,05,03,14,12.70
2008,08,05,03,15,12.70
2008,08,05,03,16,12.80
2008,08,05,03,17,12.80
2008,08,05,03,18,12.80
2008,08,05,03,19,12.90
2008,08,05,03,20,12.90
2008,08,05,03,21,13.00
2008,08,05,03,22,13.00
2008,08,05,03,23,13.00
2008,08,05,03,24,13.00
2008,08,05,03,25,12.90
2008,08,05,03,26,12.90
2008,08,05,03,27,12.80
2008,08,05,03,28,12.70
2008,08,05,03,29,12.60
2008,08,05,03,30,12.60
2008,08,05,03,31,12.50
2008,08,05,03,32,12.50
2008,08,05,03,33,12.40
2008,08,05,03,34,12.40
2008,08,05,03,35,12.40
2008,08,05,03,36,12.40
2008,08,05,03,37,12.40
2008,08,05,03,38,12.50
2008,08,05,03,39,12.60
2008,08,05,03,40,12.70
2008,08,05,03,41,12.80
2008,08,05,03,42,12.80
2008,08,05,03,43,12.90
2008,08,05,03,44,13.00
2008,08,05,03,45,13.10
2008,08,05,03,46,13.10
2008,08,05,03,47,13.10
2008,08,05,03,48,13.00
2008,08,05,03,49,12.90
2008,08,05,03,50,12.80
2008,08,05,03,51,12.70
2008,08,05,03,52,12.50
2008,08,05,03,53,12.40
2008,08,05,03,54,12.20
2008,08,05,03,55,12.10
2008,08,05,03,56,12.00
2008,08,05,03,57,11.80
2008,08,05,03,58,11.70
2008,08,05,03,59,11.60
2008,08,05,04,00,11.50
2008,08,05,04,01,11.40
2008,08,05,04,02,11.40
2008,08,05,04,03,11.40
2008,08,05,04,04,11.40
2008,08,05,04,05,11.40
2008,08,05,04,06,11.30
2008,08,05,04,07,11.30
2008,08,05,04,08,11.30
2008,08,05,04,09,11.30
2008,08,05,04,10,11.40
2008,08,05,04,11,11.40
2008,08,05,04,12,11.40
2008,08,05,04,13,11.40
2008,08,05,04,14,11.40
2008,08,05,04,15,11.40
2008,08,05,04,16,11.30
2008,08,05,04,17,11.30
2008,08,05,04,18,11.30
2008,08,05,04,19,11.30
2008,08,05,04,20,11.40
2008,08,05,04,21,11.50
2008,08,05,04,22,11.60
2008,08,05,04,23,11.70
2008,08,05,04,24,11.80
2008,08,05,04,25,11.90
2008,08,05,04,26,12.00
2008,08,05,04,27,12.00
2008,08,05,04,28,12.00
2008,08,05,04,29,11.90
2008,08,05,04,30,11.90
2008,08,05,04,31,11.80
2008,08,05,04,32,11.70
2008,08,05,04,33,11.60
2008,08,05,04,34,11.60
2008,08,05,04,35,11.50
2008,08,05,04,36,11.40
2008,08,05,04,37,11.30
2008,08,05,04,38,11.30
2008,08,05,04,39,11.30
2008,08,05,04,40,11.20
2008,08,05,04,41,11.20
2008,08,05,04,42,11.20
2008,08,05,04,43,11.30
2008,08,05,04,44,11.40
2008,08,05,04,45,11.40
2008,08,05,04,46,11.40
2008,08,05,04,47,11.40
2008,08,05,04,48,11.40
2008,08,05,04,49,11.40
2008,08,05,04,50,11.30
2008,08,05,04,51,11.30
2008,08,05,04,52,11.20
2008,08,05,04,53,11.30
2008,08,05,04,54,11.30
2008,08,05,04,55,11.20
2008,08,05,04,56,11.20
2008,08,05,04,57,11.20
2008,08,05,04,58,11.10
2008,08,05,04,59,11.10
2008,08,05,05,00,11.00
2008,08,05,05,01,10.90
2008,08,05,05,02,10.90
2008,08,05,05,03,10.90
2008,08,05,05,04,11.00
2008,08,05,05,05,11.00
2008,08,05,05,06,11.00
2008,08,05,05,07,11.00
2008,08,05,05,08,11.00
2008,08,05,05,09,10.90
2008,08,05,05,10,10.90
2008,08,05,05,11,10.90
2008,08,05,05,12,10.90
2008,08,05,05,13,10.90
2008,08,05,05,14,10.90
2008,08,05,05,15,10.90
2008,08,05,05,16,10.80
2008,08,05,05,17,10.80
2008,08,05,05,18,10.80
2008,08,05,05,19,10.80
2008,08,05,05,20,10.80
2008,08,05,05,21,10.80
2008,08,05,05,22,10.80
2008,08,05,05,23,10.70
2008,08,05,05,24,10.60
2008,08,05,05,25,10.50
2008,08,05,05,26,10.40
2008,08,05,05,27,10.40
2008,08,05,05,28,10.40
2008,08,05,05,29,10.40
2008,08,05,05,30,10.40
2008,08,05,05,31,10.40
2008,08,05,05,32,10.40
2008,08,05,05,33,10.40
2008,08,05,05,34,10.50
2008,08,05,05,35,10.40
2008,08,05,05,36,10.40
2008,08,05,05,37,10.40
2008,08,05,05,38,10.40
2008,08,05,05,39,10.40
2008,08,05,05,40,10.30
2008,08,05,05,41,10.30
2008,08,05,05,42,10.30
2008,08,05,05,43,10.30
2008,08,05,05,44,10.30
2008,08,05,05,45,10.30
2008,08,05,05,46,10.30
2008,08,05,05,47,10.30
2008,08,05,05,48,10.30
2008,08,05,05,49,10.30
2008,08,05,05,50,10.30
2008,08,05,05,51,10.30
2008,08,05,05,52,10.40
2008,08,05,05,53,10.30
2008,08,05,05,54,10.30
2008,08,05,05,55,10.30
2008,08,05,05,56,10.30
2008,08,05,05,57,10.30
2008,08,05,05,58,10.30
2008,08,05,05,59,10.30
2008,08,05,06,00,10.40
2008,08,05,06,01,10.40
2008,08,05,06,02,10.40
2008,08,05,06,03,10.40
2008,08,05,06,04,10.40
2008,08,05,06,05,10.40
2008,08,05,06,06,10.40
2008,08,05,06,07,10.30
2008,08,05,06,08,10.20
2008,08,05,06,09,10.20
2008,08,05,06,10,10.20
2008,08,05,06,11,10.20
2008,08,05,06,12,10.20
2008,08,05,06,13,10.20
2008,08,05,06,14,10.10
2008,08,05,06,15,10.10
2008,08,05,06,16,10.10
2008,08,05,06,17,10.10
2008,08,05,06,18,10.10
2008,08,05,06,19,10.10
2008,08,05,06,20,10.10
2008,08,05,06,21,10.10
2008,08,05,06,22,10.10
2008,08,05,06,23,10.10
2008,08,05,06,24,10.10
2008,08,05,06,25,10.10
2008,08,05,06,26,10.00
2008,08,05,06,27,10.00
2008,08,05,06,28,10.00
2008,08,05,06,29,10.10
2008,08,05,06,30,10.10
2008,08,05,06,31,10.20
2008,08,05,06,32,10.30
2008,08,05,06,33,10.40
2008,08,05,06,34,10.40
2008,08,05,06,35,10.40
2008,08,05,06,36,10.40
2008,08,05,06,37,10.40
2008,08,05,06,38,10.40
2008,08,05,06,39,10.40
2008,08,05,06,40,10.40
2008,08,05,06,41,10.50
2008,08,05,06,42,10.50
2008,08,05,06,43,10.60
2008,08,05,06,44,10.60
2008,08,05,06,45,10.70
2008,08,05,06,46,10.70
2008,08,05,06,47,10.70
2008,08,05,06,48,10.70
2008,08,05,06,49,10.90
2008,08,05,06,50,11.10
2008,08,05,06,51,11.30
2008,08,05,06,52,11.30
2008,08,05,06,53,11.40
2008,08,05,06,54,11.40
2008,08,05,06,55,11.50
2008,08,05,06,56,11.50
2008,08,05,06,57,11.50
2008,08,05,06,58,11.50
2008,08,05,06,59,11.50
2008,08,05,07,00,11.50
2008,08,05,07,01,11.60
2008,08,05,07,02,11.60
2008,08,05,07,03,11.60
2008,08,05,07,04,11.70
2008,08,05,07,05,11.80
2008,08,05,07,06,11.80
2008,08,05,07,07,11.80
2008,08,05,07,08,11.80
2008,08,05,07,09,11.90
2008,08,05,07,10,11.90
2008,08,05,07,11,12.00
2008,08,05,07,12,12.20
2008,08,05,07,13,12.30
2008,08,05,07,14,12.50
2008,08,05,07,15,12.60
2008,08,05,07,16,12.70
2008,08,05,07,17,12.80
2008,08,05,07,18,12.90
2008,08,05,07,19,13.00
2008,08,05,07,20,13.10
2008,08,05,07,21,13.20
2008,08,05,07,22,13.20
2008,08,05,07,23,13.30
2008,08,05,07,24,13.40
2008,08,05,07,25,13.50
2008,08,05,07,26,13.50
2008,08,05,07,27,13.60
2008,08,05,07,28,13.80
2008,08,05,07,29,13.90
2008,08,05,07,30,14.10
2008,08,05,07,31,14.20
2008,08,05,07,32,14.30
2008,08,05,07,33,14.40
2008,08,05,07,34,14.60
2008,08,05,07,35,14.70
2008,08,05,07,36,14.80
2008,08,05,07,37,14.90
2008,08,05,07,38,15.00
2008,08,05,07,39,15.00
2008,08,05,07,40,15.00
2008,08,05,07,41,15.10
2008,08,05,07,42,15.20
2008,08,05,07,43,15.20
2008,08,05,07,44,15.30
2008,08,05,07,45,15.40
2008,08,05,07,46,15.40
2008,08,05,07,47,15.50
2008,08,05,07,48,15.60
2008,08,05,07,49,15.70
2008,08,05,07,50,15.70
2008,08,05,07,51,15.80
2008,08,05,07,52,15.90
2008,08,05,07,53,16.00
2008,08,05,07,54,16.10
2008,08,05,07,55,16.20
2008,08,05,07,56,16.30
2008,08,05,07,57,16.30
2008,08,05,07,58,16.40
2008,08,05,07,59,16.50
2008,08,05,08,00,16.60
2008,08,05,08,01,16.60
2008,08,05,08,02,16.70
2008,08,05,08,03,16.70
2008,08,05,08,04,16.80
2008,08,05,08,05,16.80
2008,08,05,08,06,16.80
2008,08,05,08,07,16.80
2008,08,05,08,08,16.90
2008,08,05,08,09,16.90
2008,08,05,08,10,16.90
2008,08,05,08,11,16.90
2008,08,05,08,12,17.00
2008,08,05,08,13,17.00
2008,08,05,08,14,17.00
2008,08,05,08,15,17.00
2008,08,05,08,16,17.10
2008,08,05,08,17,17.10
2008,08,05,08,18,17.10
2008,08,05,08,19,17.10
2008,08,05,08,20,17.10
2008,08,05,08,21,17.10
2008,08,05,08,22,17.10
2008,08,05,08,23,17.20
2008,08,05,08,24,17.20
2008,08,05,08,25,17.20
2008,08,05,08,26,17.20
2008,08,05,08,27,17.20
2008,08,05,08,28,17.20
2008,08,05,08,29,17.20
2008,08,05,08,30,17.20
2008,08,05,08,31,17.00
2008,08,05,08,32,17.00
2008,08,05,08,33,16.90
2008,08,05,08,34,16.80
2008,08,05,08,35,16.80
2008,08,05,08,36,16.70
2008,08,05,08,37,16.70
2008,08,05,08,38,16.70
2008,08,05,08,39,16.70
2008,08,05,08,40,16.70
2008,08,05,08,41,16.70
2008,08,05,08,42,16.70
2008,08,05,08,43,16.70
2008,08,05,08,44,16.70
2008,08,05,08,45,16.70
2008,08,05,08,46,16.60
2008,08,05,08,47,16.60
2008,08,05,08,48,16.70
2008,08,05,08,49,16.70
2008,08,05,08,50,16.70
2008,08,05,08,51,16.70
2008,08,05,08,52,16.70
2008,08,05,08,53,16.60
2008,08,05,08,54,16.60
2008,08,05,08,55,16.70
2008,08,05,08,56,16.70
2008,08,05,08,57,16.70
2008,08,05,08,58,16.80
2008,08,05,08,59,16.80
2008,08,05,09,00,16.80
2008,08,05,09,01,16.90
2008,08,05,09,02,16.90
2008,08,05,09,03,16.90
2008,08,05,09,04,17.00
2008,08,05,09,05,17.00
2008,08,05,09,06,17.10
2008,08,05,09,07,17.10
2008,08,05,09,08,17.20
2008,08,05,09,09,17.30
2008,08,05,09,10,17.30
2008,08,05,09,11,17.30
2008,08,05,09,12,17.40
2008,08,05,09,13,17.40
2008,08,05,09,14,17.40
2008,08,05,09,15,17.40
2008,08,05,09,16,17.40
2008,08,05,09,17,17.40
2008,08,05,09,18,17.40
2008,08,05,09,19,17.30
2008,08,05,09,20,17.30
2008,08,05,09,21,17.30
2008,08,05,09,22,17.30
2008,08,05,09,23,17.30
2008,08,05,09,24,17.40
2008,08,05,09,25,17.40
2008,08,05,09,26,17.50
2008,08,05,09,27,17.50
2008,08,05,09,28,17.60
2008,08,05,09,29,17.50
2008,08,05,09,30,17.40
2008,08,05,09,31,17.30
2008,08,05,09,32,17.20
2008,08,05,09,33,17.20
2008,08,05,09,34,17.20
2008,08,05,09,35,17.20
2008,08,05,09,36,17.20
2008,08,05,09,37,17.20
2008,08,05,09,38,17.30
2008,08,05,09,39,17.30
2008,08,05,09,40,17.40
2008,08,05,09,41,17.50
2008,08,05,09,42,17.60
2008,08,05,09,43,17.80
2008,08,05,09,44,17.80
2008,08,05,09,45,17.90
2008,08,05,09,46,18.00
2008,08,05,09,47,18.00
2008,08,05,09,48,18.10
2008,08,05,09,49,18.10
2008,08,05,09,50,18.10
2008,08,05,09,51,18.00
2008,08,05,09,52,17.90
2008,08,05,09,53,17.80
2008,08,05,09,54,17.70
2008,08,05,09,55,17.70
2008,08,05,09,56,17.60
2008,08,05,09,57,17.60
2008,08,05,09,58,17.70
2008,08,05,09,59,17.60
2008,08,05,10,00,17.60
2008,08,05,10,01,17.50
2008,08,05,10,02,17.40
2008,08,05,10,03,17.30
2008,08,05,10,04,17.20
2008,08,05,10,05,17.00
2008,08,05,10,06,16.90
2008,08,05,10,07,16.80
2008,08,05,10,08,16.80
2008,08,05,10,09,16.80
2008,08,05,10,10,16.80
2008,08,05,10,11,16.70
2008,08,05,10,12,16.70
2008,08,05,10,13,16.60
2008,08,05,10,14,16.60
2008,08,05,10,15,16.60
2008,08,05,10,16,16.60
2008,08,05,10,17,16.50
2008,08,05,10,18,16.60
2008,08,05,10,19,16.60
2008,08,05,10,20,16.70
2008,08,05,10,21,16.70
2008,08,05,10,22,16.70
2008,08,05,10,23,16.70
2008,08,05,10,24,16.70
2008,08,05,10,25,16.60
2008,08,05,10,26,16.60
2008,08,05,10,27,16.60
2008,08,05,10,28,16.60
2008,08,05,10,29,16.60
2008,08,05,10,30,16.60
2008,08,05,10,31,16.70
2008,08,05,10,32,16.70
2008,08,05,10,33,16.60
2008,08,05,10,34,16.60
2008,08,05,10,35,16.60
2008,08,05,10,36,16.50
2008,08,05,10,37,16.40
2008,08,05,10,38,16.40
2008,08,05,10,39,16.50
2008,08,05,10,40,16.50
2008,08,05,10,41,16.50
2008,08,05,10,42,16.50
2008,08,05,10,43,16.60
2008,08,05,10,44,16.60
2008,08,05,10,45,16.60
2008,08,05,10,46,16.60
2008,08,05,10,47,16.50
2008,08,05,10,48,16.50
2008,08,05,10,49,16.40
2008,08,05,10,50,16.40
2008,08,05,10,51,16.40
2008,08,05,10,52,16.50
2008,08,05,10,53,16.50
2008,08,05,10,54,16.60
2008,08,05,10,55,16.70
2008,08,05,10,56,16.80
2008,08,05,10,57,16.80
2008,08,05,10,58,16.80
2008,08,05,10,59,16.80
2008,08,05,11,00,16.80
2008,08,05,11,01,16.80
2008,08,05,11,02,16.80
2008,08,05,11,03,16.80
2008,08,05,11,04,16.80
2008,08,05,11,05,16.80
2008,08,05,11,06,16.80
2008,08,05,11,07,16.80
2008,08,05,11,08,16.80
2008,08,05,11,09,16.80
2008,08,05,11,10,16.90
2008,08,05,11,11,17.00
2008,08,05,11,12,17.10
2008,08,05,11,13,17.10
2008,08,05,11,14,17.20
2008,08,05,11,15,17.20
2008,08,05,11,16,17.20
2008,08,05,11,17,17.10
2008,08,05,11,18,17.10
2008,08,05,11,19,17.20
2008,08,05,11,20,17.20
2008,08,05,11,21,17.30
2008,08,05,11,22,17.30
2008,08,05,11,23,17.40
2008,08,05,11,24,17.40
2008,08,05,11,25,17.30
2008,08,05,11,26,17.30
2008,08,05,11,27,17.30
2008,08,05,11,28,17.30
2008,08,05,11,29,17.30
2008,08,05,11,30,17.30
2008,08,05,11,31,17.30
2008,08,05,11,32,17.40
2008,08,05,11,33,17.40
2008,08,05,11,34,17.50
2008,08,05,11,35,17.50
2008,08,05,11,36,17.60
2008,08,05,11,37,17.60
2008,08,05,11,38,17.70
2008,08,05,11,39,17.70
2008,08,05,11,40,17.80
2008,08,05,11,41,17.80
2008,08,05,11,42,17.80
2008,08,05,11,43,17.80
2008,08,05,11,44,17.80
2008,08,05,11,45,17.90
2008,08,05,11,46,17.90
2008,08,05,11,47,18.00
2008,08,05,11,48,18.10
2008,08,05,11,49,18.20
2008,08,05,11,50,18.20
2008,08,05,11,51,18.30
2008,08,05,11,52,18.30
2008,08,05,11,53,18.40
2008,08,05,11,54,18.50
2008,08,05,11,55,18.60
2008,08,05,11,56,18.60
2008,08,05,11,57,18.60
2008,08,05,11,58,18.60
2008,08,05,11,59,18.60
2008,08,05,12,00,18.60
2008,08,05,12,01,18.60
2008,08,05,12,02,18.50
2008,08,05,12,03,18.50
2008,08,05,12,04,18.60
2008,08,05,12,05,18.60
2008,08,05,12,06,18.60
2008,08,05,12,07,18.60
2008,08,05,12,08,18.60
2008,08,05,12,09,18.70
2008,08,05,12,10,18.60
2008,08,05,12,11,18.60
2008,08,05,12,12,18.50
2008,08,05,12,13,18.60
2008,08,05,12,14,18.60
2008,08,05,12,15,18.70
2008,08,05,12,16,18.80
2008,08,05,12,17,18.80
2008,08,05,12,18,18.80
2008,08,05,12,19,18.80
2008,08,05,12,20,18.70
2008,08,05,12,21,18.70
2008,08,05,12,22,18.70
2008,08,05,12,23,18.80
2008,08,05,12,24,18.90
2008,08,05,12,25,18.90
2008,08,05,12,26,18.90
2008,08,05,12,27,18.90
2008,08,05,12,28,18.90
2008,08,05,12,29,18.90
2008,08,05,12,30,18.90
2008,08,05,12,31,18.90
2008,08,05,12,32,18.90
2008,08,05,12,33,19.00
2008,08,05,12,34,19.10
2008,08,05,12,35,19.00
2008,08,05,12,36,18.90
2008,08,05,12,37,18.80
2008,08,05,12,38,18.80
2008,08,05,12,39,18.80
2008,08,05,12,40,18.80
2008,08,05,12,41,18.90
2008,08,05,12,42,19.00
2008,08,05,12,43,19.10
2008,08,05,12,44,19.20
2008,08,05,12,45,19.40
2008,08,05,12,46,19.40
2008,08,05,12,47,19.40
2008,08,05,12,48,19.40
2008,08,05,12,49,19.40
2008,08,05,12,50,19.50
2008,08,05,12,51,19.60
2008,08,05,12,52,19.60
2008,08,05,12,53,19.70
2008,08,05,12,54,19.60
2008,08,05,12,55,19.60
2008,08,05,12,56,19.70
2008,08,05,12,57,19.70
2008,08,05,12,58,19.60
2008,08,05,12,59,19.60
2008,08,05,13,00,19.60
2008,08,05,13,01,19.70
2008,08,05,13,02,19.70
2008,08,05,13,03,19.70
2008,08,05,13,04,19.80
2008,08,05,13,05,19.90
2008,08,05,13,06,19.90
2008,08,05,13,07,19.90
2008,08,05,13,08,20.00
2008,08,05,13,09,19.90
2008,08,05,13,10,19.90
2008,08,05,13,11,19.90
2008,08,05,13,12,19.90
2008,08,05,13,13,20.00
2008,08,05,13,14,20.10
2008,08,05,13,15,20.20
2008,08,05,13,16,20.10
2008,08,05,13,17,20.10
2008,08,05,13,18,20.10
2008,08,05,13,19,20.10
2008,08,05,13,20,20.10
2008,08,05,13,21,20.10
2008,08,05,13,22,20.10
2008,08,05,13,23,20.10
2008,08,05,13,24,20.10
2008,08,05,13,25,20.10
2008,08,05,13,26,20.10
2008,08,05,13,27,20.10
2008,08,05,13,28,20.10
2008,08,05,13,29,20.20
2008,08,05,13,30,20.30
2008,08,05,13,31,20.40
2008,08,05,13,32,20.40
2008,08,05,13,33,20.40
2008,08,05,13,34,20.40
2008,08,05,13,35,20.40
2008,08,05,13,36,20.40
2008,08,05,13,37,20.30
2008,08,05,13,38,20.30
2008,08,05,13,39,20.40
2008,08,05,13,40,20.50
2008,08,05,13,41,20.50
2008,08,05,13,42,20.60
2008,08,05,13,43,20.70
2008,08,05,13,44,20.90
2008,08,05,13,45,21.10
2008,08,05,13,46,21.30
2008,08,05,13,47,21.30
2008,08,05,13,48,21.40
2008,08,05,13,49,21.40
2008,08,05,13,50,21.40
2008,08,05,13,51,21.40
2008,08,05,13,52,21.50
2008,08,05,13,53,21.50
2008,08,05,13,54,21.40
2008,08,05,13,55,21.40
2008,08,05,13,56,21.40
2008,08,05,13,57,21.40
2008,08,05,13,58,21.30
2008,08,05,13,59,21.30
2008,08,05,14,00,21.30
2008,08,05,14,01,21.20
2008,08,05,14,02,21.20
2008,08,05,14,03,21.20
2008,08,05,14,04,21.10
2008,08,05,14,05,21.10
2008,08,05,14,06,21.00
2008,08,05,14,07,21.10
2008,08,05,14,08,21.10
2008,08,05,14,09,21.10
2008,08,05,14,10,21.20
2008,08,05,14,11,21.40
2008,08,05,14,12,21.60
2008,08,05,14,13,21.80
2008,08,05,14,14,21.90
2008,08,05,14,15,21.90
2008,08,05,14,16,22.00
2008,08,05,14,17,22.00
2008,08,05,14,18,22.10
2008,08,05,14,19,22.10
2008,08,05,14,20,22.10
2008,08,05,14,21,22.10
2008,08,05,14,22,22.10
2008,08,05,14,23,22.10
2008,08,05,14,24,22.10
2008,08,05,14,25,22.10
2008,08,05,14,26,22.10
2008,08,05,14,27,22.10
2008,08,05,14,28,22.20
2008,08,05,14,29,22.20
2008,08,05,14,30,22.30
2008,08,05,14,31,22.40
2008,08,05,14,32,22.50
2008,08,05,14,33,22.50
2008,08,05,14,34,22.60
2008,08,05,14,35,22.70
2008,08,05,14,36,22.80
2008,08,05,14,37,22.90
2008,08,05,14,38,22.90
2008,08,05,14,39,22.90
2008,08,05,14,40,22.90
2008,08,05,14,41,23.00
2008,08,05,14,42,23.20
2008,08,05,14,43,23.20
2008,08,05,14,44,23.30
2008,08,05,14,45,23.30
2008,08,05,14,46,23.30
2008,08,05,14,47,23.30
2008,08,05,14,48,23.40
2008,08,05,14,49,23.40
2008,08,05,14,50,23.50
2008,08,05,14,51,23.60
2008,08,05,14,52,23.60
2008,08,05,14,53,23.60
2008,08,05,14,54,23.70
2008,08,05,14,55,23.70
2008,08,05,14,56,23.80
2008,08,05,14,57,23.80
2008,08,05,14,58,23.80
2008,08,05,14,59,23.90
2008,08,05,15,00,23.80
2008,08,05,15,01,23.80
2008,08,05,15,02,23.80
2008,08,05,15,03,23.90
2008,08,05,15,04,23.90
2008,08,05,15,05,23.90
2008,08,05,15,06,23.90
2008,08,05,15,07,23.90
2008,08,05,15,08,24.00
2008,08,05,15,09,24.00
2008,08,05,15,10,24.10
2008,08,05,15,11,24.10
2008,08,05,15,12,24.10
2008,08,05,15,13,24.10
2008,08,05,15,14,24.20
2008,08,05,15,15,24.20
2008,08,05,15,16,24.20
2008,08,05,15,17,24.20
2008,08,05,15,18,24.30
2008,08,05,15,19,24.30
2008,08,05,15,20,24.30
2008,08,05,15,21,24.40
2008,08,05,15,22,24.50
2008,08,05,15,23,24.60
2008,08,05,15,24,24.60
2008,08,05,15,25,24.70
2008,08,05,15,26,24.80
2008,08,05,15,27,24.80
2008,08,05,15,28,24.80
2008,08,05,15,29,24.80
2008,08,05,15,30,24.80
2008,08,05,15,31,24.80
2008,08,05,15,32,24.80
2008,08,05,15,33,24.80
2008,08,05,15,34,24.80
2008,08,05,15,35,24.80
2008,08,05,15,36,24.80
2008,08,05,15,37,24.90
2008,08,05,15,38,24.90
2008,08,05,15,39,24.90
2008,08,05,15,40,24.90
2008,08,05,15,41,24.90
2008,08,05,15,42,24.90
2008,08,05,15,43,24.90
2008,08,05,15,44,24.90
2008,08,05,15,45,24.80
2008,08,05,15,46,24.80
2008,08,05,15,47,24.90
2008,08,05,15,48,24.90
2008,08,05,15,49,25.00
2008,08,05,15,50,25.00
2008,08,05,15,51,25.10
2008,08,05,15,52,25.10
2008,08,05,15,53,25.20
2008,08,05,15,54,25.20
2008,08,05,15,55,25.20
2008,08,05,15,56,25.20
2008,08,05,15,57,25.10
2008,08,05,15,58,25.10
2008,08,05,15,59,25.10
2008,08,05,16,00,25.10
2008,08,05,16,01,25.00
2008,08,05,16,02,25.00
2008,08,05,16,03,24.90
2008,08,05,16,04,24.90
2008,08,05,16,05,24.90
2008,08,05,16,06,24.90
2008,08,05,16,07,24.90
2008,08,05,16,08,24.90
2008,08,05,16,09,24.90
2008,08,05,16,10,24.90
2008,08,05,16,11,24.90
2008,08,05,16,12,24.90
2008,08,05,16,13,24.90
2008,08,05,16,14,25.00
2008,08,05,16,15,25.10
2008,08,05,16,16,25.10
2008,08,05,16,17,25.10
2008,08,05,16,18,25.20
2008,08,05,16,19,25.30
2008,08,05,16,20,25.40
2008,08,05,16,21,25.50
2008,08,05,16,22,25.60
2008,08,05,16,23,25.70
2008,08,05,16,24,25.70
2008,08,05,16,25,25.80
2008,08,05,16,26,25.70
2008,08,05,16,27,25.70
2008,08,05,16,28,25.70
2008,08,05,16,29,25.60
2008,08,05,16,30,25.60
2008,08,05,16,31,25.50
2008,08,05,16,32,25.50
2008,08,05,16,33,25.50
2008,08,05,16,34,25.50
2008,08,05,16,35,25.50
2008,08,05,16,36,25.60
2008,08,05,16,37,25.50
2008,08,05,16,38,25.50
2008,08,05,16,39,25.50
2008,08,05,16,40,25.60
2008,08,05,16,41,25.70
2008,08,05,16,42,25.80
2008,08,05,16,43,25.80
2008,08,05,16,44,25.70
2008,08,05,16,45,25.80
2008,08,05,16,46,25.80
2008,08,05,16,47,25.80
2008,08,05,16,48,25.90
2008,08,05,16,49,25.90
2008,08,05,16,50,25.90
2008,08,05,16,51,25.90
2008,08,05,16,52,25.90
2008,08,05,16,53,25.90
2008,08,05,16,54,25.90
2008,08,05,16,55,26.00
2008,08,05,16,56,26.00
2008,08,05,16,57,26.10
2008,08,05,16,58,26.10
2008,08,05,16,59,26.10
2008,08,05,17,00,26.10
2008,08,05,17,01,26.20
2008,08,05,17,02,26.20
2008,08,05,17,03,26.20
2008,08,05,17,04,26.20
2008,08,05,17,05,26.20
2008,08,05,17,06,26.20
2008,08,05,17,07,26.20
2008,08,05,17,08,26.20
2008,08,05,17,09,26.20
2008,08,05,17,10,26.20
2008,08,05,17,11,26.20
2008,08,05,17,12,26.20
2008,08,05,17,13,26.30
2008,08,05,17,14,26.30
2008,08,05,17,15,26.40
2008,08,05,17,16,26.40
2008,08,05,17,17,26.40
2008,08,05,17,18,26.50
2008,08,05,17,19,26.50